Allentown, PA

11:52 AM EST on December 07, 2019 (GMT -0500)
Lehigh Valley International

Weather History for KABE - October, 2019

Change the Weather History Date:

Sunday, October 13, 2019

  Actual Average Record
Temperature  
Mean Temperature 56 °F 53 °F  
Max Temperature 69 °F 65 °F 85 °F (1954)
Min Temperature 42 °F 42 °F 26 °F (2012)
Degree Days  
Heating Degree Days 10 12  
Month to date heating degree days 73 130  
Since 1 July heating degree days 91 245  
Cooling Degree Days 0 0  
Month to date cooling degree days 25 3  
Year to date cooling degree days 1176 753  
Growing Degree Days 6 (Base 50)    
Moisture  
Dew Point 43 °F    
Average Humidity 61    
Maximum Humidity 83    
Minimum Humidity 40    
Precipitation  
Precipitation 0.00 in 0.13 in 0.71 in (1917)
Month to date precipitation 0.97 1.81  
Year to date precipitation 48.60 36.20  
Snow  
Snow 0.00 in 0.00 in 0.00 in ()
Month to date snowfall 0.0 0.0  
Since 1 July snowfall 0.0 0.0  
Since 1 September snowfall 0.0 0.0  
Snow Depth 0.00 in    
Sea Level Pressure  
Sea Level Pressure 30.07 in    
Wind  
Wind Speed 3 mph ()    
Max Wind Speed 10 mph    
Max Gust Speed 17 mph    
Visibility 10.0 miles    
Events      
T = Trace of Precipitation, MM = Missing Value Source: Averaged Metar Reports

Daily Weather History Graph

Daily Weather History Graph

Search for Another Location

Airport or City:

Astronomy

Oct. 13, 2019 Rise Set
Actual Time 7:10 AM EDT 6:24 PM EDT
Civil Twilight 6:42 AM EDT 6:52 PM EDT
Nautical Twilight 6:11 AM EDT 7:24 PM EDT
Astronomical Twilight 5:39 AM EDT 7:55 PM EDT
Moon 6:46 PM EDT (10/13) 6:41 AM EDT (10/13)
Length of Visible Light 12h 09m
Length of Day
11h 14m
Full, 100% of the Moon is Illuminated
Oct 13
Full
Oct 13
Full
Oct 21
Last Quarter
Oct 27
New
Nov 4
First Quarter

Hourly Weather History & Observations

Time (EDT) Temp. Windchill Dew Point Humidity Pressure Visibility Wind Dir Wind Speed Gust Speed Precip Events Conditions
12:51 AM 52.0 °F - 46.9 °F 83% 30.04 in 10.0 mi WNW 3.5 mph - N/A   Clear
1:51 AM 48.9 °F - 43.0 °F 80% 30.04 in 10.0 mi Calm Calm - N/A   Clear
2:51 AM 46.0 °F - 39.0 °F 76% 30.05 in 10.0 mi Calm Calm - N/A   Clear
3:51 AM 46.9 °F - 39.9 °F 77% 30.06 in 10.0 mi WSW 3.5 mph - N/A   Clear
4:51 AM 46.0 °F 44.8 °F 39.0 °F 76% 30.07 in 10.0 mi WSW 3.5 mph - N/A   Clear
5:51 AM 46.9 °F - 39.0 °F 74% 30.09 in 10.0 mi West 3.5 mph - N/A   Clear
6:51 AM 45.0 °F 41.8 °F 37.9 °F 76% 30.11 in 10.0 mi WSW 5.8 mph - N/A   Clear
7:51 AM 43.0 °F 38.8 °F 37.9 °F 82% 30.13 in 10.0 mi SW 6.9 mph - N/A   Clear
8:51 AM 48.9 °F - 41.0 °F 74% 30.14 in 10.0 mi SW 4.6 mph - N/A   Clear
9:51 AM 52.0 °F - 42.1 °F 69% 30.15 in 10.0 mi Calm Calm - N/A   Clear
10:51 AM 57.0 °F - 44.1 °F 62% 30.13 in 10.0 mi NE 3.5 mph - N/A   Clear
11:51 AM 61.0 °F - 43.0 °F 52% 30.11 in 10.0 mi Variable 4.6 mph - N/A   Clear
12:51 PM 63.0 °F - 42.1 °F 46% 30.10 in 10.0 mi Calm Calm - N/A   Clear
1:51 PM 64.9 °F - 42.1 °F 43% 30.08 in 10.0 mi Calm Calm - N/A   Mostly Cloudy
2:51 PM 66.9 °F - 42.1 °F 40% 30.05 in 10.0 mi NE 3.5 mph - N/A   Mostly Cloudy
3:51 PM 66.9 °F - 42.1 °F 40% 30.04 in 10.0 mi SSE 5.8 mph - N/A   Overcast
4:51 PM 66.0 °F - 43.0 °F 43% 30.03 in 10.0 mi South 6.9 mph - N/A   Overcast
5:51 PM 66.0 °F - 43.0 °F 43% 30.03 in 10.0 mi SSE 4.6 mph - N/A   Overcast
6:51 PM 64.0 °F - 44.1 °F 48% 30.03 in 10.0 mi SE 3.5 mph - N/A   Mostly Cloudy
7:51 PM 64.0 °F - 45.0 °F 50% 30.04 in 10.0 mi SSE 3.5 mph - N/A   Overcast
8:51 PM 64.0 °F - 45.0 °F 50% 30.03 in 10.0 mi Calm Calm - N/A   Overcast
9:51 PM 63.0 °F - 46.9 °F 56% 30.02 in 10.0 mi SSE 6.9 mph - N/A   Overcast
10:51 PM 62.1 °F - 48.9 °F 62% 30.02 in 10.0 mi South 3.5 mph - N/A   Overcast
11:51 PM 61.0 °F - 51.1 °F 70% 30.02 in 10.0 mi SSW 4.6 mph - N/A   Overcast